Wellsville, NY

4:19 PM EST on November 17, 2019 (GMT -0500)
Wellsville Municipal-Tarantine

Weather History for KELZ - August, 2019

Change the Weather History Date:

Thursday, August 15, 2019

  Actual Average (KDSV) Record (KDSV)
Temperature  
Mean Temperature 64 °F -  
Max Temperature 75 °F 81 °F 97 °F (1959)
Min Temperature 54 °F 57 °F 44 °F (1964)
Growing Degree Days 14 (Base 50)    
Moisture  
Dew Point 60 °F    
Average Humidity 93    
Maximum Humidity 100    
Minimum Humidity 66    
Precipitation  
Precipitation 0.75 in - - ()
Sea Level Pressure  
Sea Level Pressure 30.02 in    
Wind  
Wind Speed 3 mph ()    
Max Wind Speed 18 mph    
Max Gust Speed 36 mph    
Visibility 5.3 miles    
Events Fog , Rain , Thunderstorm    
Averages and records for this station are not official NWS values.
T = Trace of Precipitation, MM = Missing Value Source: Averaged Metar Reports

Daily Weather History Graph

Daily Weather History Graph

Search for Another Location

Airport or City:

Astronomy

Aug. 15, 2019 Rise Set
Actual Time 6:19 AM EDT 8:12 PM EDT
Civil Twilight 5:49 AM EDT 8:42 PM EDT
Nautical Twilight 5:12 AM EDT 9:19 PM EDT
Astronomical Twilight 4:32 AM EDT 9:59 PM EDT
Moon 8:40 PM EDT (8/15) 6:10 AM EDT (8/15)
Length of Visible Light 14h 53m
Length of Day
13h 53m
Full, 100% of the Moon is Illuminated
Aug 15
Full
Aug 23
Last Quarter
Aug 30
New
Sep 5
First Quarter
Sep 14
Full

Hourly Weather History & Observations

Time (EDT) Temp. Dew Point Humidity Pressure Visibility Wind Dir Wind Speed Gust Speed Precip Events Conditions
12:56 AM 60.1 °F 57.0 °F 90% 30.03 in 10.0 mi East 3.5 mph - N/A   Partly Cloudy
1:56 AM 57.9 °F 57.0 °F 97% 30.03 in 10.0 mi Calm Calm - N/A   Clear
2:56 AM 59.0 °F 57.9 °F 96% 30.03 in 10.0 mi Calm Calm - N/A   Mostly Cloudy
3:32 AM 57.0 °F 57.0 °F 100% 30.05 in 0.8 mi Calm Calm - N/A   Mostly Cloudy
3:56 AM 55.9 °F 55.9 °F 100% 30.03 in 0.2 mi Calm Calm - N/A Fog Fog
4:11 AM 55.9 °F 55.9 °F 100% 30.05 in 0.5 mi Calm Calm - N/A Fog Fog
4:15 AM 57.0 °F 57.0 °F 100% 30.05 in 2.5 mi Calm Calm - N/A   Overcast
4:23 AM 55.9 °F 55.9 °F 100% 30.05 in 2.5 mi Calm Calm - N/A   Overcast
4:31 AM 57.0 °F 57.0 °F 100% 30.05 in 0.8 mi Calm Calm - N/A   Overcast
4:41 AM 57.0 °F 57.0 °F 100% 30.05 in 0.2 mi ESE 3.5 mph - N/A Fog Fog
4:56 AM 55.9 °F 55.9 °F 100% 30.03 in 0.2 mi NNE 3.5 mph - N/A Fog Fog
5:01 AM 55.9 °F 55.9 °F 100% 30.05 in 1.0 mi NE 4.6 mph - N/A   Mostly Cloudy
5:03 AM 55.9 °F 55.9 °F 100% 30.05 in 4.0 mi NE 4.6 mph - N/A   Mostly Cloudy
5:56 AM 55.0 °F 55.0 °F 100% 30.03 in 10.0 mi East 3.5 mph - N/A   Partly Cloudy
6:02 AM 55.0 °F 55.0 °F 100% 30.05 in 2.5 mi Calm Calm - N/A   Scattered Clouds
6:04 AM 55.0 °F 55.0 °F 100% 30.05 in 0.8 mi Calm Calm - N/A   Scattered Clouds
6:13 AM 54.0 °F 54.0 °F 100% 30.06 in 0.2 mi Calm Calm - N/A Fog Fog
6:24 AM 55.0 °F 55.0 °F 100% 30.06 in 0.5 mi Calm Calm - N/A Fog Fog
6:29 AM 55.0 °F 55.0 °F 100% 30.06 in 3.0 mi Calm Calm - N/A   Mostly Cloudy
6:43 AM 55.0 °F 55.0 °F 100% 30.06 in 1.2 mi Calm Calm - N/A   Scattered Clouds
6:45 AM 55.0 °F 55.0 °F 100% 30.06 in 0.2 mi Calm Calm - N/A Fog Fog
6:56 AM 55.0 °F 55.0 °F 100% 30.05 in 0.2 mi Calm Calm - N/A Fog Fog
7:12 AM 55.9 °F 55.9 °F 100% 30.06 in 1.0 mi Calm Calm - N/A   Mist
7:17 AM 55.9 °F 55.9 °F 100% 30.06 in 3.0 mi East 3.5 mph - N/A   Scattered Clouds
7:56 AM 57.0 °F 57.0 °F 100% 30.05 in 10.0 mi Calm Calm - N/A   Partly Cloudy
8:56 AM 61.0 °F 57.0 °F 87% 30.06 in 10.0 mi SE 3.5 mph - N/A   Overcast
9:56 AM 66.9 °F 57.9 °F 73% 30.05 in 10.0 mi ESE 9.2 mph - N/A   Mostly Cloudy
10:34 AM 69.1 °F 59.0 °F 70% 30.07 in 10.0 mi SE 5.8 mph - N/A   Scattered Clouds
10:56 AM 70.0 °F 60.1 °F 71% 30.05 in 10.0 mi SE 8.1 mph - N/A   Clear
11:56 AM 73.0 °F 61.0 °F 66% 30.04 in 10.0 mi ESE 6.9 mph - N/A   Clear
12:56 PM 75.0 °F 64.0 °F 69% 30.01 in 10.0 mi SE 6.9 mph - N/A   Mostly Cloudy
1:10 PM 73.0 °F 63.0 °F 71% 30.03 in 10.0 mi Variable 5.8 mph - N/A   Mostly Cloudy
1:33 PM 73.9 °F 63.0 °F 68% 30.03 in 10.0 mi Variable 4.6 mph - N/A   Overcast
1:56 PM 75.9 °F 64.0 °F 67% 30.00 in 10.0 mi SE 9.2 mph - N/A   Mostly Cloudy
2:56 PM 73.9 °F 66.0 °F 76% 29.97 in 10.0 mi Variable 4.6 mph - 0.00 in   Mostly Cloudy
3:29 PM 73.0 °F 66.0 °F 79% 29.99 in 10.0 mi East 5.8 mph - N/A Thunderstorm Mostly Cloudy
3:56 PM 72.0 °F 66.9 °F 84% 29.96 in 10.0 mi SSE 4.6 mph - 0.00 in Rain , Thunderstorm Light Rain
4:11 PM 73.0 °F 64.0 °F 73% 29.97 in 10.0 mi Calm Calm - 0.00 in Rain , Thunderstorm Light Thunderstorms and Rain
4:47 PM 70.0 °F 66.0 °F 87% 29.98 in 10.0 mi NNW 4.6 mph - 0.00 in Thunderstorm Scattered Clouds
4:56 PM 69.1 °F 66.0 °F 90% 29.95 in 10.0 mi NNW 6.9 mph - 0.00 in Thunderstorm Scattered Clouds
5:19 PM 66.0 °F 66.0 °F 100% 30.01 in 0.8 mi WNW 18.4 mph 24.2 mph 0.14 in Rain , Thunderstorm Heavy Thunderstorms and Rain
5:31 PM 64.0 °F 61.0 °F 90% 29.98 in 0.2 mi North 3.5 mph 35.7 mph 0.66 in Fog , Rain , Thunderstorm Heavy Thunderstorms and Rain
5:40 PM 66.9 °F 59.0 °F 76% 29.98 in 1.0 mi SSW 3.5 mph - 0.71 in Rain , Thunderstorm Light Thunderstorms and Rain
5:44 PM 66.0 °F 63.0 °F 90% 29.98 in 5.0 mi North 6.9 mph - 0.71 in Rain , Thunderstorm Light Thunderstorms and Rain
5:51 PM 64.4 °F 64.4 °F 100% 29.98 in 10.0 mi NNE 10.4 mph - 0.71 in Thunderstorm Scattered Clouds
5:56 PM 64.9 °F 64.0 °F 97% 29.98 in 7.0 mi Calm Calm - 0.71 in Thunderstorm Mostly Cloudy
6:05 PM 64.9 °F 64.0 °F 97% 29.99 in 10.0 mi Calm Calm - N/A   Mostly Cloudy
6:56 PM 64.0 °F 63.0 °F 96% 30.00 in 8.0 mi ESE 4.6 mph - N/A Thunderstorm Mostly Cloudy
7:12 PM 64.0 °F 63.0 °F 96% 30.01 in 2.0 mi Calm Calm - 0.00 in Rain , Thunderstorm Light Rain
7:21 PM 63.0 °F 63.0 °F 100% 30.01 in 5.0 mi SE 3.5 mph - 0.01 in Rain , Thunderstorm Light Rain
7:40 PM 63.0 °F 63.0 °F 100% 30.00 in 7.0 mi East 3.5 mph - 0.03 in Rain Light Rain
7:56 PM 63.0 °F 63.0 °F 100% 29.98 in 6.0 mi SSE 3.5 mph - 0.03 in   Mostly Cloudy
8:13 PM 63.0 °F 63.0 °F 100% 30.01 in 4.0 mi SSW 3.5 mph - N/A Thunderstorm Mostly Cloudy
8:22 PM 63.0 °F 63.0 °F 100% 30.01 in 5.0 mi SW 4.6 mph - N/A   Mostly Cloudy
8:50 PM 62.6 °F 62.6 °F 100% 30.02 in 0.8 mi ESE 4.6 mph - N/A   Scattered Clouds
8:56 PM 62.1 °F 62.1 °F 100% 30.00 in 0.2 mi East 5.8 mph - N/A Fog Fog
9:29 PM 62.1 °F 62.1 °F 100% 30.04 in 1.0 mi SSE 3.5 mph - N/A   Mist
9:35 PM 62.1 °F 62.1 °F 100% 30.03 in 3.0 mi ESE 3.5 mph - N/A   Overcast
9:47 PM 61.0 °F 61.0 °F 100% 30.03 in 5.0 mi SE 5.8 mph - N/A   Mostly Cloudy
9:56 PM 61.0 °F 61.0 °F 100% 30.01 in 5.0 mi SSE 5.8 mph - N/A   Scattered Clouds
10:56 PM 62.1 °F 62.1 °F 100% 30.00 in 6.0 mi SSE 3.5 mph - 0.00 in Rain Light Rain
11:56 PM 62.1 °F 61.0 °F 96% 29.99 in 10.0 mi Calm Calm - 0.01 in   Clear